Regional Weather Roundup
Issued by NWS Sioux Falls, SD

Home | Current Version | Previous Version | Graphics & Text | Print | Product List | Glossary On
Versions: 1 2 3 4 5 6 7 8 9 10 11 12 13 14 15 16 17 18 19 20 21 22 23 24 25 26 27 28 29 30 31 32 33 34 35 36 37 38 39 40 41 42 43 44 45 46 47 48 49 50
000
ASUS43 KFSD 181202
RWRFSD

WEATHER ROUNDUP FOR SE SOUTH DAKOTA/SW MINNESOTA/NW IOWA
NATIONAL WEATHER SERVICE SIOUX FALLS SD
600 AM CST SUN FEB 18 2018

NOTE: "FAIR" INDICATES FEW OR NO CLOUDS BELOW 12,000 FEET WITH NO
SIGNIFICANT WEATHER AND OR OBSTRUCTIONS TO VISIBILITY.


SDZ038>040-050-052>070-181300-
SOUTHEAST SOUTH DAKOTA

CITY           SKY/WX    TMP DP  RH WIND       PRES   REMARKS
BROOKINGS      CLOUDY    29  22  75 S28G36    29.64F WCI  14
CHAMBERLAIN    CLOUDY    41  25  53 S17       29.47F
6HR MIN TEMP:  29; 6HR MAX TEMP:  41;

HURON          CLOUDY    29  24  82 S21G31    29.52F WCI  16
6HR MIN TEMP:  23; 6HR MAX TEMP:  30;

MADISON        PTSUNNY   28  28 100 S25G36    29.62F WCI  14
MITCHELL       MOCLDY    31  24  75 SE22      29.57F WCI  18
6HR MIN TEMP:  24; 6HR MAX TEMP:  31;

SIOUX FALLS    CLOUDY    30  22  72 S24G33    29.69F WCI  16
6HR MIN TEMP:  21; 6HR MAX TEMP:  30;

WINNER         FAIR      42  22  44 S29G36    29.44F
YANKTON        CLEAR     33  22  63 SE13      29.66F WCI  24
$$

MNZ071-072-080-081-089-090-097-098-181300-
SOUTHWEST MINNESOTA

CITY           SKY/WX    TMP DP  RH WIND       PRES   REMARKS
FAIRMONT       CLOUDY    22  19  89 SE21      29.90F WCI   6
JACKSON        CLOUDY    21  19  93 SE16      29.85F WCI   7
LUVERNE        PTCLDY    28  23  80 S21G32    29.74F WCI  15
MARSHALL       MOCLDY    25  21  85 SE23      29.76F WCI  10
6HR MIN TEMP:  21; 6HR MAX TEMP:  25;

MONTEVIDEO     CLOUDY    25  18  74 S23       29.78F WCI  10
PIPESTONE      CLOUDY    27  21  80 S21G30    29.70F WCI  13
REDWOOD FALLS  MOCLDY    21  17  84 SE15      29.85F WCI   8
TRACY          CLOUDY    26  23  89 SE16G24   29.77F WCI  14
WINDOM         CLOUDY    23  10  58 SE17      29.83F WCI   9
WORTHINGTON    CLOUDY    24  21  88 SE20      29.79F WCI  10
$$

IAZ001>003-012>014-020>022-031-032-NEZ013-014-SDZ071-181300-
NORTHWEST IOWA

CITY           SKY/WX    TMP DP  RH WIND       PRES   REMARKS
CHEROKEE       CLOUDY    28  23  84 S9        29.85F WCI  19
DENISON        CLEAR     32  25  74 S25G32    29.90F WCI  19
ESTHERVILLE    CLOUDY    21  19  92 SE24      29.87F WCI   4
LE MARS        CLEAR     28  23  80 S15       29.79F WCI  17
ORANGE CITY    CLEAR     28  27  93 S14G21    29.78F WCI  17
SHELDON        CLOUDY    28  25  86 S26G32    29.77F WCI  13
SIOUX CITY     CLEAR     30  24  78 S23G30    29.82F WCI  17
6HR MIN TEMP:  19; 6HR MAX TEMP:  30;

SPENCER        CLOUDY    26  22  84 SE20      29.85F WCI  12
6HR MIN TEMP:  12; 6HR MAX TEMP:  27;

STORM LAKE     CLOUDY    27  23  86 S25G32    29.86F WCI  11
$$

ABBREVIATIONS USED IN REMARKS
   TC - TEMPERATURE IN CELSIUS
  WCI - WIND CHILL INDEX
   HX - HEAT INDEX
  VSB - VISIBILITY





USA.gov is the U.S. government's official web portal to all federal, state and local government web resources and services.